Location: Kearney
(40.6990°N, 99.0810°W)
Time: 08:01:35
(UTC-05:00)

Daily predictions for brighter satellites

Satellite Brightness Start Highest point End
(mag) Time Altitude Azimuth Time Altitude Azimuth Time Altitude Azimuth
Cosmos 968 Rocket 3.6 21:33:54 10° SSW 21:39:04 84° WNW 21:44:20 10° NNE
Cosmos 2219 4.2 21:36:31 10° SSE 21:41:09 26° ESE 21:45:48 10° NE
Cosmos 1441 Rocket 3.1 21:40:50 10° S 21:44:35 73° E 21:48:20 10° NNE
Cosmos 2266 Rocket 4.3 21:39:40 10° SSE 21:45:41 49° E 21:51:37 10° NNE
Cosmos 1151 Rocket 3.6 21:43:02 10° N 21:47:06 39° ENE 21:51:09 10° SSE
Cosmos 1553 Rocket 4.1 21:42:23 10° N 21:48:49 89° W 21:55:09 10° S
AVUM R/B 2.5 21:46:38 10° S 21:48:52 52° ESE 21:51:18 10° NE
SPOT 5 3.5 21:44:42 10° SE 21:48:55 39° ENE 21:53:22 10° N
Cosmos 2322 4.2 21:44:19 10° NNW 21:49:52 48° ENE 21:55:22 10° SE
Cosmos 2322 Rocket 2.8 21:46:48 10° NNW 21:52:18 58° WSW 21:57:47 10° S
Cosmos 2058 4.4 21:49:37 10° SE 21:52:35 20° E 21:55:33 10° NE
PSLV R/B 4.2 21:54:38 10° SE 21:57:25 31° ENE 22:00:10 10° N
Cosmos 2360 Rocket 2.4 21:56:18 10° NNW 22:01:55 62° ENE 22:07:20 11° SE
Cosmos 1437 3.5 21:59:05 10° SSE 22:02:07 35° E 22:05:10 10° NNE
Envisat 3.0 21:57:30 10° SSE 22:02:33 71° ENE 22:07:37 10° N
SL-16 R/B 3.0 21:57:37 10° NNW 22:03:06 51° WSW 22:08:33 10° S
Cosmos 304 Rocket 4.0 22:00:55 10° N 22:05:40 56° ENE 22:10:03 12° SE
Cosmos 1908 3.2 22:02:12 10° N 22:06:06 76° E 22:10:00 10° SSE
ERS-1 Rocket 3.4 22:01:26 10° S 22:06:25 63° WSW 22:11:26 10° NNW
H-2A R/B 2.4 22:06:20 10° S 22:10:51 74° WSW 22:15:22 10° NNW
MetOp-B 4.4 22:05:52 10° SSE 22:11:02 54° ENE 22:16:15 10° N
SL-23 DEB 4.4 22:07:33 10° NW 22:12:59 59° NNE 22:16:05 13° ESE
Cosmos 2112 Rocket 4.3 22:08:39 10° N 22:13:48 56° ENE 22:18:17 14° SE
Cosmos 1674 2.8 22:14:07 10° S 22:17:56 81° W 22:21:49 10° N
ATLAS CENTAUR R/B 4.1 22:20:41 10° W 22:22:25 12° WSW 22:24:06 10° SW
DELTA 2 R/B (1) 3.7 22:17:43 10° W 22:23:11 60° SSW 22:27:37 15° ESE
Cosmos 1939 Rocket 3.7 22:23:20 10° S 22:27:08 46° W 22:30:55 10° NNW
Nadezhda 2 Rocket 4.4 22:21:50 10° S 22:27:55 70° E 22:34:00 10° NNE
Cosmos 2227 Rocket 3.7 22:27:04 14° ESE 22:28:34 16° E 22:31:49 10° ENE
NOSS 3-1 (C) 3.5 22:24:07 10° SSW 22:29:42 52° ESE 22:35:53 10° NE
Cosmos 1300 3.3 22:26:07 10° N 22:29:46 40° ENE 22:31:57 20° SE
Cosmos 405 3.6 22:26:50 10° NNW 22:30:24 55° W 22:33:50 11° S
Cosmos 1437 Rocket 4.3 22:33:06 10° NNW 22:36:33 33° W 22:40:01 10° SSW
YAOGAN 6 2.5 22:35:21 20° SSE 22:37:49 78° ENE 22:41:27 10° N
Cosmos 2333 Rocket 3.7 22:34:39 10° N 22:39:22 25° NE 22:43:13 13° ESE
Terra 3.2 22:39:02 16° ESE 22:41:33 25° ENE 22:45:24 10° NNE
H-2A R/B 3.2 22:39:08 17° ESE 22:42:20 32° ENE 22:47:05 10° N
CZ-4 SHROUD 4.1 22:40:50 15° S 22:43:12 46° W 22:46:14 10° NNW
Cosmos 1680 Rocket 3.9 22:45:29 10° NNW 22:50:39 58° WSW 22:54:42 16° S
COSMOS 2428 2.7 22:45:45 10° NNW 22:51:26 75° ENE 22:55:02 23° SSE
Delta 2 Rocket 3.4 22:48:25 10° WSW 22:51:39 35° S 22:52:08 33° SSE
CZ-4B R/B 3.5 22:47:00 10° NNE 22:52:18 89° E 22:57:30 10° SSW
Cosmos 1455 4.0 22:49:44 10° NNE 22:52:20 17° ENE 22:53:10 16° E
SPOT 1/Viking Rocket 3.5 22:50:46 20° SSE 22:54:27 87° WSW 22:59:39 10° NNW
OAO 2 Rocket 4.1 22:50:46 10° SW 22:55:25 31° SSE 22:57:14 25° SE
Cosmos 2297 Rocket 3.6 22:55:00 18° ESE 22:55:41 19° E 22:59:30 10° ENE
Cosmos 2242 Rocket 3.8 22:55:15 10° N 22:59:40 54° E 23:01:40 30° SE
CZ-4 R/B 3.8 22:55:51 10° NNE 23:00:49 78° ESE 23:04:32 17° S
ARGOS 3.1 22:59:48 22° SSE 23:03:23 87° WSW 23:08:48 10° NNW
CZ-4C R/B 3.2 23:02:30 37° SE 23:03:31 53° ENE 23:06:55 10° N
Cosmos 2219 Rocket 2.7 22:58:10 10° NNW 23:03:34 47° ENE 23:06:29 25° ESE
Cosmos 1898 Rocket 3.4 22:59:20 14° S 23:03:47 72° ESE 23:08:59 10° NNE
Cosmos 2150 Rocket 4.0 23:03:12 12° SSW 23:08:20 81° ESE 23:13:49 10° NNE
USA 245 3.3 23:09:33 32° SW 23:10:03 36° WSW 23:12:18 10° NNW
Cosmos 858 Rocket 4.4 23:06:04 16° S 23:10:13 74° ESE 23:15:25 10° NNE
DELTA 2 DEB (DPAF) 4.1 23:09:36 33° SSE 23:11:36 75° ENE 23:16:07 10° N
CARTOSAT-1 3.9 23:11:16 33° SE 23:12:47 49° ENE 23:16:58 10° N
Cosmos 2237 4.4 23:07:19 10° NNW 23:13:01 69° WSW 23:16:16 26° S
Sich 1 3.1 23:11:22 21° SSW 23:14:16 78° W 23:18:41 10° N
SL-08 RB Rocket 3.7 23:12:52 29° S 23:15:06 76° WSW 23:19:36 10° NNW
Tiangong 1 1.4 23:12:25 10° WSW 23:14:49 46° SSW 23:14:49 46° SSW
Cosmos 1726 2.4 23:12:31 10° NNW 23:16:17 65° W 23:17:46 33° SSW
Cosmos 1633 Rocket 3.1 23:13:56 23° SSW 23:16:37 78° W 23:21:02 10° N
Cosmos 1980 4.2 23:15:22 10° NNW 23:20:49 47° ENE 23:23:22 29° ESE
Lacrosse 4 Rocket 3.9 23:19:49 10° NNE 23:22:19 15° NE 23:24:39 11° E
Cosmos 2219 4.3 23:19:31 10° SW 23:25:00 45° WNW 23:30:32 10° NNE
Cosmos 1271 Rocket 2.6 23:22:02 10° N 23:25:52 83° W 23:26:53 48° S
SL-14 R/B 4.2 23:24:00 18° SW 23:26:37 45° W 23:30:29 10° N
DMSP B5D2-2 4.1 23:21:28 10° NNE 23:26:39 61° E 23:28:44 35° SSE
Cosmos 1703 3.2 23:25:25 41° S 23:26:43 86° W 23:30:39 10° N
Cosmos 2333 4.4 23:26:34 10° NNW 23:32:15 65° WSW 23:34:53 32° S
NOSS 3-1 (A) 3.6 23:27:14 10° SW 23:33:07 75° NW 23:39:40 10° NNE
Cosmos 2237 Rocket 2.5 23:28:08 10° NNW 23:33:44 55° ENE 23:36:00 34° ESE
Cosmos 2082 3.8 23:34:33 34° S 23:36:53 59° ESE 23:42:31 10° NNE
Iridium 2 3.8 23:36:09 45° SSW 23:37:11 70° W 23:41:02 10° N
USA 32 4.4 23:34:20 10° NNW 23:39:32 62° W 23:42:07 29° SSW
Meteor 1-4 Rocket 3.5 23:39:47 10° NNW 23:43:22 42° W 23:44:12 36° SW
ERBS 4.0 23:45:24 24° ENE 23:45:24 24° ENE 23:46:58 10° NE
Cosmos 2360 Rocket 4.3 23:41:38 10° WNW 23:45:20 18° W 23:49:01 10° SW
COSMOS 2455 3.8 23:41:07 10° NNW 23:46:42 37° NE 23:49:34 24° ESE
Meteor 2-10 4.4 23:41:30 10° NNW 23:47:12 69° W 23:49:41 34° S
Cosmos 1241 Rocket 4.3 23:43:50 23° SSW 23:47:50 77° ESE 23:54:06 10° NNE
Cosmos 1626 2.1 23:55:19 70° SW 23:55:36 75° W 23:59:22 10° N
